Temperature
19 19 19 19 19 19 19 19 19 19 19 19 19 19 19 19 19 19 19 18 18 18 18 18 18 18 18 18 18 18 18 18 18 17 17 17 17 17 17 17 17 17 17
20 19 19 19 19 19 19 19 19 19 19 19 19 19 19 19 19 18 18 18 18 18 18 18 18 18 18 18 18 18 18 18 17 17 17 17 17 17 17 17 17 17 17
20 20 19 19 19 19 19 19 19 19 19 19 19 19 19 19 18 18 18 18 18 18 18 18 18 18 18 18 18 18 17 17 17 17 17 17 17 17 17 17 17 17 16
20 20 20 19 19 19 19 19 19 19 19 19 19 19 18 18 18 18 18 18 18 18 18 18 18 18 18 18 17 17 17 17 17 17 17 17 17 17 17 17 16 16 16
20 20 20 19 19 19 19 19 19 19 19 19 18 18 18 18 18 18 18 18 18 18 18 18 18 18 17 17 17 17 17 17 17 17 17 17 17 17 17 17 16 16 16
20 20 20 20 19 19 19 19 19 19 19 19 18 18 18 18 18 18 18 18 18 18 18 18 18 18 17 17 17 17 17 17 17 17 17 17 17 17 17 17 17 16 16
20 20 20 20 19 19 19 19 19 19 19 19 18 18 18 18 18 18 18 18 18 18 18 18 18 17 17 17 17 17 17 17 17 17 17 17 17 17 17 17 17 17 17
21 20 20 20 19 19 19 19 19 19 19 18 18 18 18 18 18 18 18 18 18 18 18 18 18 18 17 17 17 17 17 17 17 17 17 17 17 17 17 17 17 17 17
21 20 20 20 19 19 19 19 19 19 18 18 18 18 18 18 18 18 18 18 18 18 18 18 18 18 17 17 17 17 17 17 17 17 17 17 17 17 17 17 17 17 16
20 20 20 20 20 19 19 19 19 19 19 18 18 18 18 18 18 18 18 18 18 18 18 18 18 18 17 17 17 17 17 17 17 18 18 18 17 17 17 17 17 17 17
20 20 20 20 20 19 19 19 19 19 19 18 18 18 18 18 18 18 18 18 18 18 18 18 18 18 18 17 17 17 17 17 17 18 18 18 18 17 17 17 17 17 17
20 20 20 20 20 20 19 19 19 19 19 19 18 18 18 18 18 18 18 18 18 18 18 18 18 18 18 17 17 17 17 18 17 18 18 18 18 18 17 17 17 17 17
20 20 20 20 20 19 19 19 19 19 19 18 18 18 18 18 18 18 18 18 18 18 18 18 18 18 18 18 17 17 17 18 18 18 18 18 18 18 18 17 17 17 17
20 20 20 20 19 19 19 19 19 19 19 18 18 18 18 18 18 18 18 18 18 18 18 18 18 18 18 18 18 18 18 18 18 18 18 18 18 18 18 18 17 17 17
21 20 20 20 19 19 19 19 19 19 19 19 18 18 18 18 18 18 18 18 18 18 18 18 18 18 18 18 18 18 18 18 18 18 18 18 18 18 18 17 17 17 17
21 20 20 20 19 19 19 19 19 19 19 19 18 18 18 18 18 18 18 18 18 18 18 18 18 18 18 18 18 18 18 18 18 18 18 18 18 18 17 17 17 17 17
21 21 20 20 19 19 19 19 19 19 19 19 19 18 18 18 18 18 18 18 18 18 18 18 18 18 18 18 18 18 18 18 18 18 18 18 18 18 17 17 17 17 17
21 21 20 20 20 20 19 19 19 19 19 19 19 19 18 18 18 18 18 18 18 18 18 18 18 18 18 18 18 18 18 18 18 18 18 18 18 18 18 17 17 17 17
22 21 21 21 20 20 20 19 19 19 19 19 19 19 19 19 18 18 18 18 18 18 18 18 18 18 18 18 18 18 18 18 18 18 18 18 18 18 18 17 17 17 17
22 21 21 21 20 20 20 19 19 19 19 19 19 19 19 19 19 18 18 18 18 18 18 18 18 18 18 18 18 18 18 18 18 18 18 18 18 18 18 17 17 17 17
22 21 21 21 21 20 20 20 19 19 19 19 19 19 19 19 19 19 18 18 18 18 18 18 18 18 18 18 18 18 18 18 18 18 18 18 18 18 18 17 17 17 17
22 22 21 21 21 20 20 20 20 20 19 19 19 19 19 19 19 19 19 18 18 18 18 18 18 18 18 18 18 17 18 18 18 18 18 18 18 18 18 18 17 17 17
22 22 22 21 21 21 20 20 20 19 19 19 19 19 19 19 19 19 19 18 18 18 18 18 18 18 18 18 18 17 17 18 18 18 18 18 18 18 18 18 17 17 17
23 22 22 22 21 21 20 20 20 20 19 20 20 19 19 19 19 19 18 18 18 18 18 18 18 18 18 18 18 17 17 17 17 18 18 18 18 18 18 17 17 17 17
23 22 22 22 21 21 20 20 20 20 20 20 19 19 19 19 19 18 18 18 18 18 18 18 18 18 18 18 18 18 17 17 17 17 17 18 18 18 18 17 17 17 17
23 22 22 22 21 21 21 20 20 20 20 19 19 19 19 19 19 19 18 18 18 18 18 18 18 18 18 17 17 17 17 17 17 17 17 17 17 18 17 17 17 17 17
Wind_Speed
4 9 15 16 17 18 19 19 19 20 21 21 21 21 21 21 21 21 21 20 20 20 20 20 20 21 21 21 21 21 21 21 20 20 19 18 18 19 19 19 18 17 18
8 12 16 16 17 18 18 19 19 19 20 20 20 20 20 20 20 20 20 20 19 19 19 19 20 20 20 20 20 21 21 20 20 19 18 17 18 18 18 18 17 16 17
11 13 16 17 17 18 18 18 19 19 19 19 20 20 20 20 20 19 19 19 19 19 18 18 18 19 19 19 19 19 19 19 19 19 18 16 17 18 18 18 17 17 17
13 14 16 18 17 18 18 18 18 18 18 19 19 19 19 19 19 19 19 19 18 18 18 17 17 17 17 17 17 16 16 17 18 17 15 14 15 17 17 17 17 17 16
12 14 17 18 18 18 18 17 18 18 18 18 18 18 18 18 18 18 18 18 17 16 16 16 16 15 15 15 14 13 14 14 15 15 14 14 15 16 16 16 16 16 16
10 14 17 18 18 17 17 17 17 17 17 17 17 17 17 17 17 17 17 17 16 15 15 15 14 14 13 12 12 12 13 14 15 14 14 14 14 15 15 15 15 15 15
10 13 17 18 17 17 17 16 16 16 16 17 17 16 16 16 16 16 16 16 15 14 14 13 13 12 11 10 10 11 13 14 14 14 13 13 14 14 14 14 14 14 14
12 12 16 17 17 17 16 16 16 16 16 16 16 16 16 15 15 15 15 15 14 13 12 11 11 10 9 9 10 12 13 14 14 13 12 13 14 14 14 13 13 13 13
12 11 12 15 16 16 16 16 16 16 15 15 15 15 15 15 14 14 14 14 13 12 11 10 9 8 7 7 8 10 11 13 14 13 12 12 14 13 13 13 13 12 12
9 9 10 12 13 14 15 15 15 15 15 15 15 14 14 14 13 13 13 12 12 11 10 9 7 6 5 5 6 8 11 13 12 12 12 12 14 13 12 12 12 12 11
10 8 9 10 11 13 13 14 14 14 14 14 13 14 12 11 11 11 11 11 11 10 8 7 5 4 2 2 4 7 9 9 12 11 12 13 14 13 12 12 11 11 11
12 10 9 9 10 12 11 12 11 11 12 11 11 11 10 9 9 9 10 10 9 8 7 5 3 2 0 1 1 4 7 10 11 11 12 14 14 13 12 12 11 11 10
13 12 10 10 11 10 9 11 9 9 10 10 11 11 9 8 7 7 7 7 7 6 4 3 2 3 2 2 1 2 6 8 10 10 12 14 14 13 13 12 11 11 10
13 12 11 11 10 10 11 9 9 8 8 8 11 12 10 7 6 6 5 5 5 5 4 3 3 4 3 2 2 4 7 9 10 11 13 15 14 14 13 12 12 11 11
12 12 12 11 10 10 9 8 9 8 9 10 11 12 12 8 5 6 5 6 6 6 5 4 4 3 2 1 2 5 6 10 11 11 12 15 15 14 14 13 13 12 12
13 13 11 11 10 10 8 6 8 10 10 10 11 12 13 11 8 6 5 5 6 7 7 5 4 3 2 1 1 4 6 8 11 11 12 14 15 15 15 14 14 13 13
14 13 11 11 9 9 8 7 8 10 11 9 10 12 13 12 10 8 5 4 6 7 7 4 2 1 1 1 1 2 5 7 9 11 13 13 14 15 16 15 15 15 14
14 13 12 12 10 9 7 6 6 9 10 9 10 11 12 12 12 8 5 4 6 6 5 3 2 1 1 1 1 2 2 4 7 10 12 13 14 14 16 17 17 17 16
15 14 12 10 10 9 7 6 6 7 8 9 10 10 11 11 11 8 5 5 6 4 3 3 2 2 2 2 2 3 2 3 5 8 9 12 14 15 15 16 18 18 18
13 12 11 10 10 8 6 4 4 4 4 7 8 10 11 10 11 9 5 5 5 3 2 2 2 2 2 2 2 2 3 4 4 5 7 10 13 15 16 15 15 16 19
12 12 12 11 9 8 5 5 4 4 4 4 6 10 11 10 10 8 4 4 4 3 4 4 3 2 2 1 0 3 4 3 3 4 5 5 7 11 12 14 14 14 14
14 13 12 12 11 9 7 5 4 4 4 4 5 8 11 11 10 8 6 4 4 3 4 3 3 2 2 2 2 0 3 4 3 3 3 4 5 6 8 12 13 14 13
15 15 14 12 11 10 8 5 3 2 1 2 4 5 7 10 10 8 7 6 5 5 4 4 4 4 3 2 2 3 2 3 3 3 3 3 3 3 4 6 9 11 12
16 14 13 12 11 10 9 7 7 6 5 6 5 5 5 9 9 9 8 7 6 4 5 5 4 4 4 3 2 3 3 4 2 3 3 2 2 3 3 4 6 9 11
15 14 12 11 11 10 10 10 9 7 6 4 4 5 6 5 7 8 8 6 5 4 5 5 4 4 4 4 3 3 2 2 3 3 4 4 2 2 2 3 4 5 8
12 12 12 12 11 11 10 10 10 9 7 6 6 6 5 4 4 5 6 6 5 5 5 5 5 5 4 4 4 3 3 3 3 3 4 4 3 3 2 2 2 3 5
Wind_Direction
119 119 111 106 103 100 99 98 98 98 97 97 97 97 97 98 99 100 101 101 101 101 101 102 102 103 104 105 106 107 108 108 107 107 108 109 110 110 108 107 105 105 107
136 125 116 111 108 106 104 102 101 100 100 100 100 100 100 100 101 101 102 101 102 102 102 102 103 104 105 106 107 109 109 108 106 106 106 107 109 110 109 108 108 110 109
128 124 119 114 111 109 107 105 104 103 103 103 102 102 102 102 102 102 102 101 102 103 103 103 103 104 105 106 108 109 110 109 107 104 101 100 105 108 110 110 110 111 110
129 127 124 119 116 113 111 109 108 107 106 105 105 105 105 104 104 103 103 103 103 104 105 105 106 106 106 107 108 110 112 112 110 106 102 102 106 109 110 110 111 111 110
123 127 128 123 120 118 116 114 112 111 109 107 107 108 108 108 107 107 107 107 107 106 108 108 109 108 107 107 108 110 113 112 111 107 103 102 107 113 113 113 113 113 113
121 127 129 127 124 122 120 119 117 115 113 112 111 111 111 110 110 110 110 110 110 110 111 111 111 109 107 104 103 106 111 113 112 109 108 107 110 114 115 115 114 114 114
126 128 130 129 127 126 124 122 120 119 118 116 115 114 113 113 113 113 113 113 113 114 115 115 114 112 109 103 99 101 113 116 118 116 114 113 116 117 118 118 118 118 117
131 129 131 132 130 129 128 126 126 124 122 121 120 118 116 116 117 117 118 118 118 119 118 118 117 114 109 98 92 101 111 115 121 123 121 121 123 122 122 124 124 124 122
130 129 130 133 134 133 132 131 130 129 128 126 124 123 121 121 121 121 122 123 123 123 122 122 121 116 107 95 91 105 116 116 125 130 130 129 129 129 128 129 128 128 128
134 135 135 134 136 135 136 136 136 135 134 132 131 131 129 128 127 125 125 128 129 128 128 128 126 120 109 94 91 103 120 125 133 135 137 139 137 136 135 136 134 135 135
143 145 145 143 143 142 142 142 141 141 141 139 140 140 135 131 132 132 134 134 136 137 137 138 140 134 109 82 87 101 118 131 135 141 147 149 147 144 143 143 142 142 142
156 160 159 156 157 155 150 145 147 147 148 148 149 147 146 147 146 144 146 144 145 148 151 159 163 166 321 28 65 98 126 135 139 147 155 157 155 153 152 152 153 152 152
162 162 164 165 166 163 151 153 157 155 158 162 165 163 159 156 153 148 149 151 154 160 170 196 225 264 286 293 230 152 147 148 152 157 164 165 163 162 162 163 164 164 164
163 166 168 169 169 167 159 163 164 164 171 176 178 173 162 156 156 157 160 166 175 183 194 215 240 258 272 268 209 175 157 157 161 163 171 173 172 172 173 175 176 175 176
165 168 169 169 170 168 163 171 170 174 181 182 177 175 168 165 166 170 178 187 197 196 196 213 231 242 245 261 176 164 158 161 166 171 179 182 182 183 183 185 185 186 187
167 167 166 165 165 162 166 172 171 176 180 178 177 178 174 171 170 170 173 186 197 199 201 207 214 207 207 211 175 169 175 169 177 179 185 189 192 193 195 195 195 197 198
166 164 161 161 161 161 162 167 169 173 175 175 178 178 175 174 174 173 173 184 199 203 200 199 204 178 198 233 235 188 181 189 187 188 191 195 199 203 204 204 205 206 207
162 163 166 166 163 161 159 158 160 167 169 177 179 177 177 178 178 173 175 192 197 188 186 175 180 164 218 235 240 238 203 197 201 201 199 201 202 206 211 214 214 213 214
165 165 167 162 165 165 160 156 156 161 170 177 177 177 178 180 179 173 180 197 192 176 184 201 183 173 200 235 238 234 235 225 214 214 208 209 209 211 212 218 220 221 222
166 166 166 165 168 162 153 142 139 147 168 175 178 184 183 182 183 177 184 196 186 169 186 195 187 190 198 219 255 267 259 247 231 223 218 215 215 216 216 217 220 227 230
169 168 169 169 173 165 162 161 161 176 182 185 190 192 191 190 187 181 184 186 177 179 189 185 180 197 220 189 66 321 309 280 252 242 226 214 214 216 216 218 219 223 233
177 176 173 176 176 176 177 173 169 168 183 190 194 194 196 195 193 191 181 188 190 187 194 193 180 180 229 175 155 133 324 326 305 262 245 224 219 216 220 223 220 222 229
182 182 181 180 179 181 175 164 155 139 152 190 200 204 205 201 200 200 194 190 197 190 198 203 191 182 210 237 181 162 181 244 294 308 276 247 229 220 227 225 223 227 231
186 183 179 178 180 183 177 177 177 183 196 208 204 202 205 205 204 206 202 197 198 198 201 211 200 192 189 228 241 212 196 181 198 294 311 288 257 238 230 231 229 227 230
182 180 179 178 182 186 187 186 187 197 204 205 198 200 204 207 207 207 203 198 198 201 209 214 208 203 197 207 216 220 226 216 199 204 270 293 298 261 231 229 232 228 231
175 178 179 182 189 189 190 189 192 197 199 199 203 202 207 206 208 207 202 200 205 205 209 213 215 214 214 215 217 208 200 205 211 203 232 259 271 276 271 244 231 227 230
Height
1542 1542 1542 1542 1542 1542 1542 1542 1542 1543 1543 1544 1545 1545 1546 1547 1547 1548 1549 1550 1551 1551 1552 1553 1554 1554 1555 1556 1556 1557 1558 1559 1559 1560 1561 1561 1562 1563 1563 1564 1564 1565 1566
1542 1543 1544 1544 1544 1544 1544 1545 1545 1546 1546 1547 1547 1548 1549 1550 1550 1551 1552 1553 1553 1554 1555 1556 1557 1557 1558 1558 1559 1560 1561 1562 1562 1563 1563 1564 1565 1565 1566 1566 1567 1567 1568
1543 1544 1545 1545 1546 1546 1547 1547 1548 1548 1549 1550 1550 1551 1552 1552 1553 1554 1555 1556 1556 1557 1558 1559 1560 1560 1561 1561 1562 1563 1564 1564 1565 1565 1566 1566 1567 1568 1568 1569 1569 1570 1570
1544 1545 1546 1547 1548 1548 1549 1550 1550 1551 1552 1552 1553 1554 1554 1555 1556 1557 1558 1558 1559 1560 1561 1562 1562 1563 1564 1565 1565 1566 1567 1567 1568 1568 1568 1569 1569 1570 1570 1571 1571 1572 1572
1546 1547 1548 1549 1549 1550 1551 1552 1553 1553 1554 1555 1556 1556 1557 1558 1559 1560 1560 1561 1562 1563 1563 1564 1565 1566 1567 1567 1568 1569 1569 1569 1570 1570 1571 1571 1572 1572 1573 1573 1574 1574 1575
1547 1548 1549 1550 1551 1552 1553 1554 1555 1556 1556 1557 1558 1559 1559 1560 1561 1562 1563 1564 1564 1565 1566 1567 1568 1569 1569 1570 1571 1571 1572 1572 1572 1573 1573 1574 1574 1575 1575 1575 1576 1576 1577
1548 1550 1551 1552 1553 1554 1555 1556 1557 1558 1559 1560 1560 1561 1562 1563 1563 1564 1565 1566 1567 1568 1568 1569 1570 1571 1572 1573 1573 1573 1574 1574 1575 1575 1575 1576 1576 1577 1577 1578 1578 1579 1579
1549 1551 1552 1554 1555 1556 1557 1558 1559 1560 1561 1562 1562 1563 1564 1565 1566 1566 1567 1568 1569 1570 1571 1572 1573 1574 1575 1575 1576 1576 1576 1576 1577 1577 1578 1578 1578 1579 1579 1579 1580 1580 1581
1551 1553 1554 1555 1556 1558 1559 1560 1561 1561 1563 1564 1564 1565 1566 1567 1568 1569 1569 1570 1571 1572 1573 1574 1575 1576 1577 1578 1578 1578 1578 1579 1579 1579 1580 1580 1580 1580 1581 1581 1582 1582 1583
1553 1554 1556 1557 1558 1559 1560 1561 1562 1563 1564 1565 1566 1567 1568 1569 1570 1571 1572 1572 1573 1574 1575 1576 1577 1578 1579 1580 1580 1580 1580 1581 1581 1581 1581 1582 1582 1582 1582 1583 1583 1584 1584
1555 1556 1557 1558 1559 1560 1562 1563 1564 1565 1566 1567 1568 1569 1570 1571 1572 1573 1574 1575 1575 1576 1577 1578 1579 1580 1581 1582 1582 1582 1582 1582 1583 1583 1583 1583 1583 1583 1584 1584 1584 1585 1585
1555 1557 1558 1559 1560 1562 1563 1564 1565 1566 1567 1568 1569 1570 1571 1572 1573 1574 1575 1576 1577 1578 1579 1580 1581 1582 1583 1583 1583 1584 1584 1584 1584 1584 1584 1584 1584 1585 1585 1585 1585 1586 1586
1555 1557 1559 1560 1562 1563 1564 1565 1566 1567 1568 1569 1570 1571 1572 1573 1575 1576 1577 1578 1579 1580 1580 1581 1582 1583 1584 1584 1584 1585 1585 1585 1585 1585 1585 1585 1585 1585 1586 1586 1586 1586 1586
1555 1557 1559 1561 1562 1564 1565 1566 1567 1568 1569 1570 1571 1572 1573 1574 1575 1576 1578 1579 1580 1581 1582 1583 1583 1584 1585 1585 1585 1585 1585 1586 1586 1586 1586 1586 1586 1586 1586 1586 1586 1586 1587
1555 1557 1559 1560 1562 1563 1565 1567 1568 1569 1570 1571 1572 1573 1574 1575 1576 1577 1578 1579 1580 1581 1582 1583 1584 1585 1585 1585 1585 1586 1586 1586 1586 1586 1586 1586 1586 1586 1586 1586 1586 1586 1587
1554 1556 1558 1560 1561 1563 1565 1566 1568 1569 1570 1571 1572 1573 1574 1575 1576 1577 1578 1580 1580 1582 1583 1583 1584 1585 1585 1586 1586 1586 1586 1586 1586 1586 1586 1586 1586 1586 1586 1586 1586 1586 1586
1553 1556 1558 1560 1562 1563 1565 1566 1567 1568 1570 1571 1572 1573 1574 1575 1576 1577 1578 1579 1580 1581 1582 1583 1584 1585 1585 1586 1586 1586 1586 1586 1586 1586 1586 1586 1586 1586 1586 1586 1586 1586 1586
1553 1555 1557 1559 1561 1563 1564 1565 1566 1568 1569 1571 1572 1573 1574 1575 1576 1577 1578 1579 1580 1581 1582 1583 1583 1584 1584 1585 1585 1585 1585 1585 1585 1585 1585 1585 1585 1585 1585 1585 1585 1585 1584
1551 1554 1556 1558 1560 1562 1564 1565 1566 1568 1569 1570 1571 1572 1573 1574 1575 1576 1577 1578 1579 1580 1581 1582 1583 1583 1583 1584 1584 1584 1584 1584 1584 1584 1584 1584 1583 1583 1583 1583 1583 1583 1583
1551 1553 1555 1557 1559 1561 1563 1564 1566 1567 1568 1569 1571 1572 1573 1574 1575 1576 1577 1577 1578 1579 1580 1581 1582 1582 1582 1583 1583 1582 1582 1582 1582 1582 1582 1581 1581 1581 1581 1581 1581 1581 1581
1549 1551 1553 1555 1557 1559 1561 1562 1564 1565 1567 1568 1569 1571 1572 1573 1574 1574 1575 1576 1577 1578 1579 1579 1580 1581 1581 1581 1581 1581 1580 1580 1579 1579 1579 1579 1579 1579 1579 1579 1579 1578 1578
1546 1549 1551 1553 1555 1557 1559 1561 1562 1564 1566 1567 1568 1569 1570 1571 1572 1573 1573 1574 1575 1576 1577 1578 1578 1579 1579 1579 1579 1579 1578 1578 1577 1577 1577 1577 1576 1576 1576 1576 1576 1576 1576
1543 1546 1548 1551 1553 1555 1557 1559 1561 1562 1564 1565 1566 1566 1567 1568 1570 1570 1571 1572 1573 1574 1575 1575 1576 1576 1577 1577 1577 1577 1576 1575 1574 1574 1574 1574 1574 1574 1573 1573 1573 1572 1573
1540 1543 1546 1548 1551 1553 1554 1556 1557 1558 1559 1561 1563 1564 1565 1566 1567 1568 1569 1570 1571 1571 1572 1573 1573 1574 1574 1574 1574 1574 1575 1574 1573 1571 1571 1571 1571 1571 1570 1570 1569 1569 1569
1537 1541 1544 1546 1548 1550 1551 1553 1555 1556 1557 1559 1560 1561 1562 1564 1565 1565 1566 1567 1568 1569 1569 1570 1570 1571 1571 1571 1571 1571 1571 1571 1571 1570 1568 1568 1568 1568 1567 1567 1566 1565 1565
1536 1539 1542 1544 1545 1547 1548 1550 1552 1553 1555 1556 1557 1558 1560 1561 1562 1563 1563 1564 1565 1566 1566 1567 1567 1567 1567 1568 1568 1568 1568 1568 1567 1567 1566 1565 1564 1564 1564 1563 1563 1562 1562